Upstream stations:
Downstream station:
SHEF ID: MARK1 COTTONWOOD R AT MARION, KS
STATION TYPE:
Regulating: Stage = 16.00, Flow = 4479
PRECIP STAGE RIV-FLOW BAT-LOAD
in ft cfs volt
Ccp-Rev Ccp-Rev Ccp-Rev Ccp-Rev
(US/Central)
11/22 00:00 0.00 4.73 3 12.54
11/22 01:00 0.00 4.71 3 12.54
11/22 02:00 0.00 4.73 3 12.48
11/22 03:00 0.00 4.72 3 12.42
11/22 04:00 0.00 4.72 3 12.42
11/22 05:00 0.00 4.71 3 12.36
11/22 06:00 0.00 4.71 3 12.36
11/22 07:00 0.00 4.72 3 12.30
11/22 08:00 0.00 4.72 3 12.42
11/22 09:00 0.00 4.73 3 13.53
11/22 10:00 0.00 4.72 3 13.53
11/22 11:00 0.00 4.73 3 13.53
11/22 12:00 0.00 4.72 3 13.53
11/22 13:00 0.00 4.73 3 13.53
11/22 14:00 0.00 4.72 3 13.53
11/22 15:00 0.00 4.71 3 13.77
11/22 16:00 0.00 4.72 3 13.83
11/22 17:00 0.00 4.71 3 13.36
11/22 18:00 0.00 4.71 3 12.77
11/22 19:00 0.00 4.72 3 12.71
11/22 20:00 0.00 4.71 3 12.65
11/22 21:00 ---- ---- ---- ----
11/22 22:00 ---- ---- ---- ----
11/22 23:00 ---- ---- ---- ----